Location: Sabana Grande
(18.0777°N, 66.9605°W)
Time: 03:33:57
(UTC-04:00)

ACS3 Solar Sail - Pass Details

Date: 29 September 2024
Orbit: 960 x 1033 km, 97.5° (Epoch: 12 October)

Event Time Altitude Azimuth Distance (km) Brightness Sun altitude
Exits shadow 19:55:12 13° 29° (NNE) 2,585 3.8 -24.0°
Drops below altitude 10° 19:56:06 10° 23° (NNE) 2,829 4.0 -24.2°
Sets 19:59:07 0° 10° (N) 3,781 4.8 -24.9°
